{"data":{"norad_id":66829,"intl_designator":"2025-280J","name":"STARLINK-36084","alt_names":[],"object_type":"PAYLOAD","status":"ACTIVE","operator":null,"country":"US","launch_date":"2025-12-02","launch_site_code":"AFWTR","launch_vehicle":null,"mission":null,"orbit_class":"UNKNOWN","rcs_meters":null,"size_class":null,"mass_kg":null,"dimensions":null,"purposes":["comms"],"wikipedia_slug":null,"has_3d_model":false,"image_url":null,"decayed_at":null,"tle_current":{"epoch":"2026-05-25T02:30:30.262752Z","epoch_age_seconds":56206,"freshness":"FRESH","line1":"1 66829U 25280J   26145.10451693  .00003715  00000+0  31886-3 0  9999","line2":"2 66829  70.0003 141.7257 0004302 264.5594  95.5075 14.98338922 27520","mean_motion":14.98338922,"eccentricity":0.0004302,"inclination_deg":70.0003,"raan_deg":141.7257,"arg_perigee_deg":264.5594,"mean_anomaly_deg":95.5075,"bstar":0.00031886,"rev_number":2752,"period_min":96.10642684753,"perigee_km":569.03833942002,"apogee_km":575.01826164459,"semimajor_km":6950.1653005323,"source":"CELESTRAK","updated_at":"2026-05-25T13:38:21.335288Z"}}}